Weather observations for the past three days for
Augusta, Bush Field
Imperial (Metric)
Date Time (edt) Wind (mph) Vis. (mi.) Weather Sky Cond. Temperature (ºF) Relative Humidity Wind Chill (°F) Heat Index (°F) Pressure Precipitation (in)
Air Dwpt 6 hour altimeter (in) sea level (mb) 1 hr 3 hr 6 hr
Max. Min.
18 03:53 SE 3 7.00 Fair CLR 71.1 70 96% 29.99 1015.4
18 02:53 W 3 10.00 Fair CLR 73 71.1 94% 29.98 1014.9
18 01:53 Calm 10.00 Fair CLR 73 71.1 75.9 72 94% 29.98 1015.0 0.02
18 00:53 Calm 8.00 Fair CLR 72 71.1 97% 29.99 1015.4
17 23:53 S 5 10.00 Fair CLR 73 71.1 94% 30.01 1016.1
17 22:53 S 3 10.00 Fair CLR 73.9 71.1 91% 30.01 1016.0 0.01 0.02
17 21:53 SW 5 10.00 Light Rain FEW110 75 72 90% 74 30 1015.7 0.01
17 20:53 Calm 10.00 Fair CLR 75.9 73 91% 76 29.99 1015.2
17 19:53 SW 7 10.00 A Few Clouds FEW095 75 73 95 71.1 94% 73 30.01 1016.1 0.94
17 18:53 Calm 10.00 Fair CLR 73.9 71.1 91% 29.98 1015.0 0.01
17 17:53 SE 8 5.00 Thunderstorm Light Rain Fog/Mist FEW049 SCT070 BKN110 71.1 70 96% 29.96 1014.3 0.93
17 16:53 NW 21 G 28 6.00 Thunderstorm Haze and Breezy FEW047 SCT085 91 70 50% 97 29.93 1013.4
17 15:53 SW 12 10.00 A Few Clouds FEW046 95 72 47% 103 29.94 1013.7
17 14:53 SW 10 9.00 Partly Cloudy SCT046 93.9 72 49% 102 29.95 1014.1
17 13:53 S 10 10.00 A Few Clouds FEW047 93 71.1 93.9 75.9 49% 100 29.98 1014.9
17 12:53 W 10 9.00 A Few Clouds FEW045 93 70 47% 99 29.99 1015.4
17 11:53 SW 10 10.00 Fair CLR 90 71.1 54% 96 30.01 1015.9
17 10:53 W 7 10.00 Fair CLR 87.1 71.1 59% 93 30.02 1016.5
17 09:53 W 8 10.00 Fair CLR 84.9 71.1 63% 90 30.03 1016.7
17 08:53 SW 5 10.00 Fair CLR 80.1 72 76% 84 30.04 1017.0
17 07:53 SW 5 10.00 Fair CLR 75.9 71.1 75.9 72 85% 76 30.03 1016.8
17 06:53 W 3 10.00 Fair CLR 73.9 70 88% 30.02 1016.2
17 05:53 SW 5 10.00 Fair CLR 73 71.1 94% 29.99 1015.4
17 04:53 SW 5 10.00 Partly Cloudy SCT055 73.9 71.1 91% 29.97 1014.6
17 03:53 Calm 10.00 Fair CLR 73 71.1 94% 29.95 1014.1
17 02:53 S 5 10.00 Fair CLR 73.9 71.1 91% 29.96 1014.1
17 01:53 SW 6 10.00 Fair CLR 75 71.1 79 75 88% 75 29.97 1014.5 0.01
17 00:53 SW 5 10.00 Fair CLR 75.9 72 88% 76 29.98 1015.0
16 23:53 S 3 10.00 Mostly Cloudy FEW075 SCT100 BKN120 77 72 85% 78 30 1015.7 0.01
16 22:53 NW 3 9.00 Partly Cloudy SCT075 77 73 88% 78 30 1015.8
16 21:53 SE 7 10.00 Mostly Cloudy BKN110 77 72 85% 78 29.99 1015.3
16 20:53 SE 3 10.00 Fair CLR 77 72 85% 78 29.98 1015.1
16 19:53 S 6 10.00 Fair CLR 79 71.1 95 79 77% 82 29.97 1014.7
16 18:53 W 6 10.00 Fair CLR 81 70 69% 84 29.97 1014.5
16 17:53 SW 12 G 21 10.00 A Few Clouds FEW060 82 71.1 69% 86 29.96 1014.2
16 16:53 S 3 10.00 Thunderstorm in Vicinity FEW060 88 73 61% 96 29.96 1014.2
16 15:53 Vrbl 5 10.00 Fair CLR 86 70 59% 91 29.96 1014.2
16 14:53 SW 14 10.00 Thunderstorm CLR 93.9 71.1 48% 101 29.97 1014.5
16 13:53 S 10 10.00 A Few Clouds FEW039 93 73.9 93.9 77 54% 103 29.98 1015.0
16 12:53 SW 10 G 20 10.00 A Few Clouds FEW034 91 73.9 57% 101 30.01 1015.9
16 11:53 SW 8 10.00 Fair CLR 89.1 73.9 61% 98 30.01 1016.1
16 10:53 S 6 10.00 Fair CLR 86 73.9 67% 94 30.02 1016.3
16 09:53 SW 7 10.00 Fair CLR 82.9 73 72% 89 30.02 1016.5
16 08:53 SW 6 10.00 Fair CLR 80.1 72 76% 84 30.02 1016.3
16 07:53 Calm 10.00 Fair CLR 77 72 77 72 85% 78 30.01 1016.1
16 06:53 Calm 8.00 Fair CLR 73 71.1 94% 30 1015.6
16 05:53 Calm 10.00 Fair CLR 75 71.1 88% 75 29.98 1015.0
16 04:53 W 5 10.00 Fair CLR 75.9 72 88% 76 29.97 1014.7
16 03:53 Calm 10.00 Fair CLR 75 73 94% 73 29.95 1014.0
16 02:53 Calm 6.00 Fog/Mist CLR 73.9 72 94% 29.96 1014.2
16 01:53 Calm 7.00 Fair CLR 73.9 73 87.1 73.9 97% 29.97 1014.7
16 00:53 Calm 9.00 Fair CLR 75 73 94% 73 29.98 1015.0
15 23:53 S 5 6.00 Fog/Mist CLR 75 73 94% 73 29.98 1015.1
15 22:53 Calm 10.00 Fair CLR 78.1 73.9 87% 81 29.98 1015.1
15 21:53 N 6 9.00 Thunderstorm Light Rain BKN100 77 73.9 90% 78 30.01 1016.1
15 20:53 S 9 10.00 Thunderstorm in Vicinity BKN055 OVC070 86 73 65% 93 29.98 1014.9
15 19:53 S 10 10.00 Partly Cloudy SCT095 86 73 97 86 65% 93 29.95 1013.8
15 18:53 SW 6 10.00 A Few Clouds FEW110 93 70 47% 99 29.93 1013.2
15 17:53 SW 6 10.00 Fair CLR 96.1 68 40% 101 29.92 1013.1
15 16:53 W 9 G 18 10.00 Fair CLR 93 69.1 46% 98 29.92 1012.9
15 15:53 SW 7 10.00 Fair CLR 97 69.1 40% 103 29.94 1013.5
15 14:53 Vrbl 3 10.00 A Few Clouds FEW035 FEW070 91 73 56% 100 29.97 1014.6
15 13:53 SW 6 10.00 Fair CLR 97 69.1 97 80.1 40% 103 29.99 1015.3
15 12:53 Calm 10.00 Fair CLR 95 71.1 46% 102 30.02 1016.3
15 11:53 Vrbl 3 10.00 Fair CLR 90 75 62% 100 30.04 1016.9
15 10:53 S 5 10.00 Fair CLR 87.1 73.9 65% 95 30.05 1017.4
15 09:53 SW 3 10.00 Fair CLR 84.9 73 68% 92 30.06 1017.5
15 08:53 W 6 10.00 Fair CLR 82.9 73 72% 89 30.05 1017.4
15 07:53 Calm 10.00 Fair CLR 80.1 73 82 73.9 79% 84 30.04 1017.1
15 06:53 Calm 8.00 Fair CLR 75 73 94% 73 30.03 1016.6
15 05:53 SE 3 10.00 Fair CLR 75.9 73 91% 76 30.01 1015.9
15 04:53 S 3 10.00 Fair CLR 77 73 88% 78 29.99 1015.2
Date Time (edt) Wind (mph) Vis. (mi.) Weather Sky Cond. Air Dwpt Max. Min. Relative Humidity Wind Chill (°F) Heat Index (°F) altimeter (in) sea level (mb) 1 hr 3 hr 6 hr
6 hour
Temperature (ºF) Pressure Precipitation (in)